Weather History for KPHD - May, 2014

Change the Weather History Date:

Wednesday, May 14, 2014

  Actual Average Record
Temperature  
Mean Temperature 74 °F 59 °F  
Max Temperature 83 °F 72 °F 89 °F (1982)
Min Temperature 64 °F 47 °F 27 °F (1996)
Degree Days  
Heating Degree Days 0 7  
Month to date heating degree days 78 113  
Since 1 July heating degree days 6082 5528  
Cooling Degree Days 9 1  
Month to date cooling degree days 38 5  
Year to date cooling degree days 39 12  
Growing Degree Days 23 (Base 50)    
Moisture  
Dew Point 64 °F    
Average Humidity 76    
Maximum Humidity 100    
Minimum Humidity 51    
Precipitation  
Precipitation 0.25 in 0.14 in 1.00 in (1964)
Month to date precipitation 2.17 1.68  
Year to date precipitation 13.96 13.11  
Sea Level Pressure  
Sea Level Pressure 30.01 in    
Wind  
Wind Speed 6 mph (SE)    
Max Wind Speed 17 mph    
Max Gust Speed 24 mph    
Visibility 9 miles    
Events Rain , Thunderstorm    
T = Trace of Precipitation, MM = Missing Value Source: NWS Daily Summary

Daily Weather History Graph

Daily Weather History Graph

Search for Another Location

Airport or City:

Trip Planner

Search our weather history database for the weather conditions in past years. The results will help you decide how hot, cold, wet, or windy it might be!

Date:

Astronomy

May. 14, 2014 Rise Set
Actual Time 6:10 AM EDT 8:34 PM EDT
Civil Twilight 5:39 AM EDT 9:05 PM EDT
Nautical Twilight 5:01 AM EDT 9:43 PM EDT
Astronomical Twilight 4:18 AM EDT 10:26 PM EDT
Moon 8:38 PM EDT (5/14) 6:08 AM EDT (5/14)
Length of Visible Light 15h 25m
Length of Day
14h 24m
Full, 100% of the Moon is Illuminated
May 14
Full
May 14
Full
May 21
Last Quarter
May 28
New
Jun 5
First Quarter

Hourly Weather History & Observations

Time (EDT) Temp. Heat Index Dew Point Humidity Pressure Visibility Wind Dir Wind Speed Gust Speed Precip Events Conditions
12:53 AM 69.1 °F - 66.0 °F 90% 30.05 in 10.0 mi Calm Calm - N/A   Mostly Cloudy
1:53 AM 72.0 °F - 63.0 °F 73% 30.07 in 10.0 mi South 6.9 mph - N/A   Scattered Clouds
2:53 AM 69.1 °F - 63.0 °F 81% 30.08 in 10.0 mi Variable 6.9 mph - N/A   Overcast
3:12 AM 69.1 °F - 63.0 °F 81% 30.11 in 10.0 mi South 5.8 mph - N/A Thunderstorm Overcast
3:28 AM 68.0 °F - 63.0 °F 84% 30.12 in 1.8 mi SW 3.5 mph - 0.10 in Rain , Thunderstorm Heavy Rain
3:35 AM 66.9 °F - 64.0 °F 90% 30.11 in 3.0 mi SE 3.5 mph - 0.11 in Rain , Thunderstorm Light Rain
3:53 AM 66.0 °F - 64.9 °F 96% 30.09 in 10.0 mi ESE 3.5 mph - 0.11 in   Mostly Cloudy
5:53 AM 64.9 °F - 64.0 °F 97% 30.08 in 8.0 mi Calm Calm - N/A   Mostly Cloudy
6:49 AM 64.4 °F - 64.4 °F 100% 30.11 in 7.0 mi Calm Calm - N/A   Mostly Cloudy
6:53 AM 64.9 °F - 64.0 °F 97% 30.09 in 7.0 mi Calm Calm - N/A   Mostly Cloudy
7:29 AM 64.9 °F - 64.0 °F 97% 30.11 in 5.0 mi ESE 3.5 mph - N/A   Partly Cloudy
8:53 AM 69.1 °F - 64.0 °F 84% 30.10 in 10.0 mi SE 4.6 mph - N/A   Scattered Clouds
9:53 AM 70.0 °F - 64.9 °F 84% 30.09 in 10.0 mi SE 6.9 mph - N/A   Clear
11:53 AM 78.1 °F - 64.0 °F 62% 30.06 in 10.0 mi SE 9.2 mph - N/A   Clear
12:53 PM 80.1 °F 81.7 °F 64.0 °F 58% 30.03 in 10.0 mi SE 11.5 mph - N/A   Clear
1:53 PM 82.0 °F 83.1 °F 63.0 °F 52% 30.00 in 10.0 mi SSE 12.7 mph - N/A   Partly Cloudy
2:53 PM 82.0 °F 83.1 °F 63.0 °F 52% 29.98 in 10.0 mi SE 15.0 mph 18.4 mph N/A   Scattered Clouds
3:53 PM 81.0 °F 81.7 °F 61.0 °F 50% 29.96 in 10.0 mi South 6.9 mph - N/A   Partly Cloudy
4:23 PM 82.9 °F 83.7 °F 62.1 °F 49% 29.97 in 10.0 mi South 6.9 mph - N/A Thunderstorm Partly Cloudy
4:53 PM 82.0 °F 83.1 °F 63.0 °F 52% 29.93 in 10.0 mi Variable 3.5 mph - N/A Thunderstorm Mostly Cloudy
5:03 PM 73.9 °F - 63.0 °F 68% 29.95 in 10.0 mi NNW 15.0 mph - N/A Thunderstorm Thunderstorm
5:53 PM 69.1 °F - 64.0 °F 84% 29.97 in 10.0 mi Variable 5.8 mph - 0.00 in Thunderstorm Thunderstorm
6:13 PM 71.1 °F - 64.0 °F 78% 29.96 in 10.0 mi NNE 6.9 mph - N/A Thunderstorm Partly Cloudy
6:31 PM 71.1 °F - 64.0 °F 78% 29.94 in 10.0 mi NNW 6.9 mph - N/A   Clear
6:53 PM 70.0 °F - 63.0 °F 78% 29.94 in 10.0 mi Variable 4.6 mph - N/A   Clear
7:53 PM 66.9 °F - 64.0 °F 90% 29.94 in 10.0 mi WNW 5.8 mph - N/A   Clear
8:27 PM 66.9 °F - 64.0 °F 90% 29.96 in 10.0 mi NE 4.6 mph - N/A Thunderstorm Partly Cloudy
8:53 PM 66.9 °F - 64.0 °F 90% 29.96 in 10.0 mi ENE 4.6 mph - N/A Thunderstorm Mostly Cloudy
9:16 PM 66.9 °F - 64.0 °F 90% 30.00 in 6.0 mi WSW 10.4 mph - 0.03 in Rain , Thunderstorm Thunderstorms and Rain
9:27 PM 66.0 °F - 64.0 °F 93% 29.98 in 2.5 mi NNW 4.6 mph - 0.13 in Rain , Thunderstorm Light Thunderstorms and Rain
9:34 PM 66.0 °F - 64.0 °F 93% 29.97 in 8.0 mi East 4.6 mph - 0.13 in Rain , Thunderstorm Light Thunderstorms and Rain
9:53 PM 66.0 °F - 64.0 °F 93% 29.95 in 10.0 mi North 4.6 mph - 0.13 in Thunderstorm Partly Cloudy
10:09 PM 66.0 °F - 64.0 °F 93% 29.95 in 10.0 mi East 6.9 mph - N/A   Clear
10:53 PM 66.0 °F - 64.0 °F 93% 29.94 in 10.0 mi SSE 4.6 mph - 0.00 in   Scattered Clouds
11:53 PM 66.0 °F - 64.0 °F 93% 29.91 in 10.0 mi SSE 3.5 mph - 0.01 in   Scattered Clouds